カタログに戻る

USA 330

運用中軍事VLEO
NORAD 52891·PAYLOAD·🇺🇸 United States

打ち上げ Jun 19, 2022 から Cape Canaveral Space Force Station

Loading…

次のパス (今後24時間)

TLE

古いSource: Mike McCants

元期: Jan 12, 2025, 17:34 UTC

1 52891U 22064D   25012.73256558 0.00000000  00000-0  00000-0 0    03
2 52891  53.0058 287.8036 0006242 356.3156   3.6843 15.13407515    01

AllMySatでUSA 330をリアルタイム追跡

Download on the App Store